User: anonymous   Login
Location: Pine Mountain Observatory
(43.7910°N, 120.9377°W)
Time: 06:45:22
(UTC-08:00)
Language:

IDEFIX/ARIANE 42P - Orbit

View from above orbital plane
View from above orbital plane
View from above satellite
View from above satellite

Ground track
Ground track

The orbit data is extracted from the following two-line orbital elements,

1 27422U 02021B   17022.47496361 -.00000054  00000-0 -51230-5 0  9991
2 27422  98.2278  30.8254 0011480 312.6536  47.3679 14.29252218765861
Epoch (UTC): 22 January 2017 11:23:56
Eccentricity: 0.0011480
inclination: 98.2278°
perigee height: 786 km
apogee height: 802 km
right ascension of ascending node: 30.8254°
argument of perigee: 312.6536°
revolutions per day: 14.29252218
mean anomaly at epoch: 47.3679°
orbit number at epoch: 76586

The dashed part of the orbit path shows where the satellite is in the earth's shadow,  

DLR